Location: Burgberg
(50.1428°N, 11.0671°E)
Time: 22:29:37
(UTC+00:00)

STARLINK-1056 - Pass Details

Date: 26 January 2020
Orbit: 549 x 550 km, 53.0° (Epoch: 17 February)

Event Time Altitude Azimuth Distance (km) Brightness Sun altitude
Rises 06:16:19 0° 235° (SW) 2,710 6.8 -7.0°
Reaches altitude 10° 06:18:33 10° 232° (SW) 1,820 6.0 -6.6°
Maximum altitude 06:22:38 63° 151° (SSE) 618 4.2 -6.0°
Drops below altitude 10° 06:26:45 10° 71° (ENE) 1,829 7.1 -5.4°
Sets 06:29:00 0° 68° (ENE) 2,726 7.9 -5.1°
